Regional Weather Roundup
Issued by NWS

Home | Current Version | Previous Version | Graphics & Text | Print | Product List | Glossary On
Versions: 1 2 3 4 5 6 7 8 9 10 11 12 13 14 15 16 17 18 19 20 21 22 23 24 25 26 27 28 29 30 31 32 33 34 35 36 37 38 39 40 41 42 43 44 45 46 47 48 49 50
000
ASUS43 KLMK 281602
RWRKY
KENTUCKY REGIONAL WEATHER ROUNDUP
NATIONAL WEATHER SERVICE LOUISVILLE KY
1200 PM EDT TUE JUL 28 2015

NOTE "FAIR" INDICATES FEW OR NO CLOUDS BELOW 12,000 FEET
WITH NO SIGNIFICANT WEATHER AND/OR OBSTRUCTIONS TO VISIBILITY.

KYZ001>023-026-027-061>063-070>075-281700-
WESTERN AND SOUTH CENTRAL KENTUCKY

CITY           SKY/WX    TMP DP  RH WIND       PRES   REMARKS
PADUCAH        SUNNY     90  77  65 SW6       29.98S HX 103
HENDERSON      SUNNY     90  75  62 SW3       29.97R HX 100
OWENSBORO      SUNNY     90  77  65 SW6       29.99S HX 103
HOPKINSVILLE   SUNNY     89  77  67 W9        30.00S HX 101
BOWLING GREEN  PTSUNNY   87  75  67 S7        30.00F HX  96
GLASGOW        NOT AVBL
$$

KYZ024-025-028>034-038-045-046-053-281700-
NORTH CENTRAL KENTUCKY

CITY           SKY/WX    TMP DP  RH WIND       PRES   REMARKS
LOUISVILLE/SDF PTSUNNY   88  76  67 S5        29.97F HX  99
LOUISVILLE/LOU PTSUNNY   86  76  71 W6        29.98F HX  96
FORT KNOX      MOSUNNY   87  75  68 SW6       29.99S HX  96
$$

KYZ035>037-039>044-047>052-055>060-089>105-281700-
NORTHEAST KENTUCKY

CITY           SKY/WX    TMP DP  RH WIND       PRES   REMARKS
LEXINGTON      MOSUNNY   86  74  67 SW6       30.01F HX  94
COVINGTON      PTSUNNY   86  72  62 CALM      30.01S HX  92
FRANKFORT      RAIN      83  75  77 W6        29.99F HX  90
$$

KYZ054-064>069-076>088-106>120-281700-
SOUTHEAST KENTUCKY

CITY           SKY/WX    TMP DP  RH WIND       PRES   REMARKS
JACKSON        PTSUNNY   83  73  72 VRB3      30.05S
LONDON         MOSUNNY   86  70  58 SW5       30.04S HX  90
SOMERSET       NOT AVBL
MIDDLESBORO    NOT AVBL
MONTICELLO     SUNNY     89  76  65 CALM      30.05S HX 100
$$




USA.gov is the U.S. government's official web portal to all federal, state and local government web resources and services.